This is the latest recevied weather packets stored in our database for station/object OE-11331. If no packets are shown the sender has not sent any weather packets the latest 10 day(s).
| Time | Temp. | Humidity | Pressure | Rain* | Wind** | Luminosity | Snow |
|---|---|---|---|---|---|---|---|
| 1787844934 | 30.56° C | 46% | 1012.9 hPa | 0 mm | - | 260 W/m² | - |
| 1787844334 | 30.56° C | 46% | 1012.8 hPa | 0 mm | - | 325 W/m² | - |
| 1787843507 | 30.56° C | 46% | 1012.8 hPa | 0 mm | - | 379 W/m² | - |
| 1787843134 | 30.56° C | 45% | 1012.8 hPa | 0 mm | - | 390 W/m² | - |
| 1787842534 | 30.56° C | 44% | 1012.9 hPa | 0 mm | - | 422 W/m² | - |
| 1787841706 | 30.56° C | 44% | 1012.9 hPa | 0 mm | - | 455 W/m² | - |
| 1787841334 | 30.56° C | 44% | 1013 hPa | 0 mm | - | 476 W/m² | - |
| 1787839907 | 30.56° C | 44% | 1012.9 hPa | 0 mm | - | 530 W/m² | - |
| 1787839534 | 30.56° C | 43% | 1012.9 hPa | 0 mm | - | 530 W/m² | - |
| 1787838934 | 30.56° C | 44% | 1013.1 hPa | 0 mm | - | 563 W/m² | - |
| 1787838107 | 30° C | 45% | 1013 hPa | 0 mm | - | 628 W/m² | - |
| 1787837734 | 30° C | 46% | 1013.2 hPa | 0 mm | - | 660 W/m² | - |
| 1787837134 | 30° C | 45% | 1013.3 hPa | 0 mm | - | 552 W/m² | - |
| 1787836307 | 30° C | 46% | 1013.3 hPa | 0 mm | - | 682 W/m² | - |
| 1787835933 | 29.44° C | 47% | 1013.4 hPa | 0 mm | - | 714 W/m² | - |
| 1787835334 | 29.44° C | 47% | 1013.5 hPa | 0 mm | - | 714 W/m² | - |
| 1787834507 | 29.44° C | 48% | 1013.7 hPa | 0 mm | - | 725 W/m² | - |
| 1787834133 | 28.89° C | 48% | 1013.9 hPa | 0 mm | - | 736 W/m² | - |
| 1787833534 | 28.33° C | 50% | 1014.2 hPa | 0 mm | - | 747 W/m² | - |
| 1787832707 | 28.33° C | 53% | 1014.3 hPa | 0 mm | - | 758 W/m² | - |
| 1787832334 | 27.78° C | 52% | 1014.5 hPa | 0 mm | - | 758 W/m² | - |
| 1787831733 | 27.78° C | 54% | 1014.6 hPa | 0 mm | - | 768 W/m² | - |
| 1787830907 | 27.78° C | 54% | 1014.9 hPa | 0 mm | - | 768 W/m² | - |
| 1787830533 | 27.22° C | 54% | 1015 hPa | 0 mm | - | 768 W/m² | - |
| 1787829933 | 27.22° C | 56% | 1015.3 hPa | 0 mm | - | 779 W/m² | - |
* Rain latest hour (hover to see other rain measurements)
** Current wind speed in m/s (hover to see current wind gust speed)